Hourly Data Report for December 08, 2017

CARBERRY CS
MANITOBA

49°54'20.900" N
99°21'26.800" W
383.50 m
5010547
71170
WZE

Download Data

Hourly Data (December 2017)
Hourly Data Report for December 8, 2017
TIME
LST
Temp Definition
°C
Dew Point Definition
°C
Rel Hum Definition
%
Precip. Amount Definition
mm

Wind Dir Definition
10's deg

Wind Spd Definition
km/h
Visibility Definition
km
Stn Press Definition
kPa
Hmdx Definition


Wind Chill Definition


Weather Definition


00:00 -10.9 -12.1 90 0.0 26 8   96.98   -16 LegendNANA
01:00 -7.9 -9.2 91 0.0 25 8   96.97   -12 LegendNANA
02:00 -10.6 -12.0 89 0.0 28 11   96.99   -16 LegendNANA
03:00 -11.8 -13.4 88 0.0 26 10   96.95   -17 LegendNANA
04:00 -10.6 -11.8 91 0.0 25 4   96.94   -13 LegendNANA
05:00 -8.3 -9.8 89 0.0 23 8   96.86   -12 LegendNANA
06:00 -7.1 -8.6 89 0.0 24 11   96.73   -12 LegendNANA
07:00 -6.4 -8.0 88 0.0 25 19   96.65   -13 LegendNANA
08:00 -5.8 -7.5 88 0.0 25 18   96.55   -12 LegendNANA
09:00 -5.3 -7.3 85 0.0 26 20   96.48   -12 LegendNANA
10:00 -4.7 -7.9 78 0.0 28 23   96.38   -12 LegendNANA
11:00 -3.8 -7.4 76 0.0 28 24   96.39   -11 LegendNANA
12:00 -2.2 -6.5 72 0.0 28 27   96.34   -9 LegendNANA
13:00 -0.9 -6.3 67 0.0 28 36   96.25   -8 LegendNANA
14:00 -1.4 -6.0 71 0.0 27 29   96.28   -8 LegendNANA
15:00 -0.3 -6.1 65 0.0 33 25   96.46   -6 LegendNANA
16:00 -3.6 -7.5 75 0.0 36 28   96.61   -11 LegendNANA
17:00 -4.1 -7.6 77 0.0 1 30   96.75   -12 LegendNANA
18:00 -4.6 -8.0 77 0.0 1 29   96.88   -12 LegendNANA
19:00 -5.5 -9.5 73 0.0 36 29   96.96   -14 LegendNANA
20:00 -6.1 -9.9 74 0.0 35 24   97.04   -14 LegendNANA
21:00 -6.5 -10.1 76 0.0 36 25   97.13   -14 LegendNANA
22:00 -6.6 -10.4 75 0.0 34 26   97.14   -15 LegendNANA
23:00 -6.9 -10.6 75 0.0 35 20   97.25   -14 LegendNANA

Notes on Data Quality.

Legend

  • E = Estimated
  • M = Missing
  • NA = Not Available*
  • [empty] = Indicates an unobserved value
Date modified: